Oregon State Current Weather Observations

 
 ASUS46 KPQR 210010
 RWROR 
 
 OREGON REGIONAL WEATHER ROUNDUP
 NATIONAL WEATHER SERVICE PORTLAND OR
 500 PM PDT SUN AUG 20 2017
 
 NOTE: "FAIR" INDICATES FEW OR NO CLOUDS BELOW 12,000 FEET WITH
 NO SIGNIFICANT WEATHER AND/OR OBSTRUCTIONS TO VISIBILITY.
 
 ORZ001>013-210100-
 NORTHWEST OREGON
 
   
 CITY           SKY/WX    TMP DP  RH WIND       PRES   REMARKS
 ASTORIA        MOSUNNY   68  58  70 NW16      30.12F                  
 6HR MIN TEMP:  64; 6HR MAX TEMP:  69;                                
 
 NEWPORT        PTSUNNY   59  55  88 N17G31    30.12F                  
 PORTLAND       CLOUDY    79  53  40 NW10      30.04F                  
 6HR MIN TEMP:  62; 6HR MAX TEMP:  81;                                
 
 VANCOUVER WA   CLOUDY    79  54  41 NW14G20   30.04F                  
 6HR MIN TEMP:  64; 6HR MAX TEMP:  80;                                
 
 SCAPPOOSE      PTSUNNY   79  52  38 N14G21    30.04F                  
 6HR MIN TEMP:  69; 6HR MAX TEMP:  81;                                
 
 HILLSBORO      PTSUNNY   83  51  33 N12       30.04F                  
 6HR MIN TEMP:  67; 6HR MAX TEMP:  84;                                
 
 AURORA         SUNNY     84  52  32 NE8       30.05F                  
 MCMINNVILLE    PTSUNNY   84  52  33 NE16      30.04F                  
 6HR MIN TEMP:  68; 6HR MAX TEMP:  85;                                
 
 SALEM          CLOUDY    82  51  34 N13       30.02F                  
 6HR MIN TEMP:  68; 6HR MAX TEMP:  83;                                
 
 CORVALLIS      PTSUNNY   82  52  34 N7        30.04F                  
 EUGENE         PTSUNNY   83  49  30 N23G30    30.02F                  
 6HR MIN TEMP:  69; 6HR MAX TEMP:  85;                                
 
 
ORZ021-028-210100- SOUTHWEST OREGON CITY SKY/WX TMP DP RH WIND PRES REMARKS NORTH BEND PTSUNNY 60 55 83 N29G39 30.06S 6HR MIN TEMP: 60; 6HR MAX TEMP: 64; BROOKINGS CLOUDY 62 52 69 SE5 29.88R ROSEBURG SUNNY 87 44 22 N17G25 29.97F 6HR MIN TEMP: 71; 6HR MAX TEMP: 88; SEXTON SUMMIT SUNNY 74 39 28 VRB5 30.08F 6HR MIN TEMP: 63; 6HR MAX TEMP: 76; GRANTS PASS FAIR 88 37 16 N15 29.98S MEDFORD SUNNY 89 44 20 W8 29.92F SMOKE 6HR MIN TEMP: 68; 6HR MAX TEMP: 90;
ORZ014>016-041-210100- COLUMBIA GORGE CITY SKY/WX TMP DP RH WIND PRES REMARKS TROUTDALE CLOUDY 81 52 36 VRB5 30.03F 6HR MIN TEMP: 64; 6HR MAX TEMP: 81; HOOD RIVER CLOUDY 77 54 44 CALM 29.99S THE DALLES CLOUDY 82 53 36 NW14 29.94F 6HR MIN TEMP: 71; 6HR MAX TEMP: 87;
ORZ029>031-041-044-049-050-061>064-502-503-505>511-210100- EASTERN OREGON CITY SKY/WX TMP DP RH WIND PRES REMARKS MADRAS MOSUNNY 82 32 16 NW7G22 30.06S REDMOND SUNNY 85 16 7 N15G21 30.05F 6HR MIN TEMP: 71; 6HR MAX TEMP: 86; BEND SUNNY 82 28 14 N12 30.08S PRINEVILLE SUNNY 82 28 14 N17 30.06S KLAMATH FALLS SUNNY 85 39 19 N8 30.04F 6HR MIN TEMP: 72; 6HR MAX TEMP: 86; LAKEVIEW SUNNY N/A N/A N/A S7 30.06F HERMISTON PTSUNNY 85 45 24 VRB6 29.97S 6HR MIN TEMP: 74; 6HR MAX TEMP: 87; PENDLETON PTSUNNY 82 39 21 NW8 30.00F 6HR MIN TEMP: 75; 6HR MAX TEMP: 84; JOHN DAY MOSUNNY 83 32 16 CALM 30.06S MEACHAM PTSUNNY 73 29 19 CALM 30.11S 6HR MIN TEMP: 69; 6HR MAX TEMP: 76; LA GRANDE NOT AVBL BAKER CITY SUNNY 85 39 19 NW13 30.04F 6HR MIN TEMP: 75; 6HR MAX TEMP: 87; BURNS MOSUNNY 82 26 13 SW5 30.05F 6HR MIN TEMP: 69; 6HR MAX TEMP: 84; ROME N/A 89 29 11 VRB5 30.00F 6HR MIN TEMP: 75; 6HR MAX TEMP: 91; ONTARIO PTSUNNY 90 33 13 MISG 29.95F 6HR MIN TEMP: 79; 6HR MAX TEMP: 90;

Data from: http://www.wrh.noaa.gov/sew/get.php?pil=RWR&sid=OR&version=0&format=printer

Current Observations

Current Weather Conditions by Major Highway
Washington State Current Weather Observations   …  Oregon State Current Weather Observation



48 Hour Forecast


Seattle  …  Vancouver  …  Portland
————————————————————————————————————————
Bend  …  Spokane  …  Richland  …  Pendleton  …  Blue Mountains I-84  …  Yakima
————————————————————————————————————————
Goldendale, Washington Higher Elevations  …  Dallesport Airport - Goldendale  …  Bingen - White Salmon - Hood River  …  Index





Top of Page